TimeCDT,TemperatureF,Dew PointF,Humidity,Sea Level PressureIn,VisibilityMPH,Wind Direction,Wind SpeedMPH,Gust SpeedMPH,PrecipitationIn,Events,Conditions,WindDirDegrees,DateUTC
12:58 AM,72.3,51.1,47,29.98,10.0,SE,16.1,-,N/A,,Clear,130,2013-04-22 05:58:00
1:58 AM,69.1,55.0,61,29.98,10.0,SE,18.4,27.6,N/A,,Clear,130,2013-04-22 06:58:00
2:58 AM,66.2,55.9,69,29.99,10.0,SE,21.9,26.5,N/A,,Clear,130,2013-04-22 07:58:00
3:33 AM,64.4,57.2,77,30.02,10.0,SE,19.6,26.5,N/A,,Mostly Cloudy,130,2013-04-22 08:33:00
3:58 AM,65.1,56.8,75,29.98,10.0,SE,21.9,27.6,N/A,,Overcast,140,2013-04-22 08:58:00
4:58 AM,65.1,57.6,76,29.99,10.0,SE,17.3,-,N/A,,Overcast,140,2013-04-22 09:58:00
5:38 AM,64.4,57.2,77,30.04,8.0,SE,16.1,-,N/A,,Overcast,140,2013-04-22 10:38:00
5:58 AM,64.9,57.7,77,30.01,6.0,SE,13.8,-,N/A,,Haze,140,2013-04-22 10:58:00
6:03 AM,64.4,57.2,77,30.04,10.0,SE,17.3,-,N/A,,Overcast,140,2013-04-22 11:03:00
6:58 AM,65.1,57.9,77,30.02,8.0,SSE,12.7,-,N/A,,Overcast,160,2013-04-22 11:58:00
7:58 AM,65.3,58.1,77,30.03,8.0,SSE,11.5,-,N/A,,Overcast,150,2013-04-22 12:58:00
8:58 AM,66.7,57.9,73,30.03,10.0,SSE,13.8,-,N/A,,Overcast,160,2013-04-22 13:58:00
9:58 AM,68.4,58.1,70,30.03,10.0,South,16.1,-,N/A,,Overcast,170,2013-04-22 14:58:00
10:58 AM,71.2,58.1,63,30.03,10.0,South,18.4,-,N/A,,Overcast,180,2013-04-22 15:58:00
11:28 AM,73.4,57.2,57,30.06,10.0,South,15.0,24.2,N/A,,Overcast,180,2013-04-22 16:28:00
11:58 AM,73.9,58.3,58,30.02,10.0,South,13.8,24.2,N/A,,Overcast,170,2013-04-22 16:58:00
12:29 PM,77.0,59.0,54,30.03,10.0,South,16.1,24.2,N/A,,Scattered Clouds,180,2013-04-22 17:29:00
12:58 PM,78.8,58.6,50,29.98,10.0,SSE,16.1,-,N/A,,Partly Cloudy,160,2013-04-22 17:58:00
1:24 PM,78.8,59.0,51,29.99,10.0,South,17.3,-,N/A,,Partly Cloudy,190,2013-04-22 18:24:00
1:58 PM,81.5,58.8,46,29.94,10.0,SSE,15.0,20.7,N/A,,Clear,150,2013-04-22 18:58:00
2:58 PM,84.4,57.7,40,29.90,10.0,South,17.3,23.0,N/A,,Clear,170,2013-04-22 19:58:00
3:58 PM,86.9,56.3,35,29.86,10.0,South,15.0,26.5,N/A,,Clear,180,2013-04-22 20:58:00
4:58 PM,88.7,55.0,32,29.82,10.0,South,16.1,24.2,N/A,,Clear,170,2013-04-22 21:58:00
5:58 PM,89.1,54.1,30,29.78,10.0,SSE,18.4,24.2,N/A,,Clear,160,2013-04-22 22:58:00
6:03 PM,89.6,55.4,31,29.82,10.0,South,17.3,23.0,N/A,Rain,Light Rain,170,2013-04-22 23:03:00
6:06 PM,89.6,55.4,31,29.82,10.0,South,18.4,23.0,N/A,,Clear,180,2013-04-22 23:06:00
6:58 PM,88.5,55.6,33,29.78,10.0,South,17.3,-,0.00,,Clear,170,2013-04-22 23:58:00
7:58 PM,86.0,55.0,35,29.78,10.0,SE,17.3,-,N/A,,Clear,140,2013-04-23 00:58:00
8:58 PM,82.8,54.5,38,29.80,10.0,SE,11.5,-,N/A,,Clear,140,2013-04-23 01:58:00
9:58 PM,81.0,55.6,42,29.81,10.0,SE,12.7,-,N/A,,Clear,140,2013-04-23 02:58:00
10:58 PM,77.5,54.9,45,29.82,10.0,SE,9.2,-,N/A,,Clear,130,2013-04-23 03:58:00
11:58 PM,74.3,55.4,52,29.82,10.0,SE,9.2,-,N/A,,Clear,130,2013-04-23 04:58:00